Flag for Grenada Weather past 2 weeks in Saint George's, Grenada

Now
82 °F

Scattered clouds.


Feels Like: 89 °F
Forecast: 74 / 80 °F
Wind: 15 mph from Southeast

Location: Point Salines Airport

Current Time: Dec 20, 2014 at 11:38:06 AM

Latest Report: Dec 20, 2014 at 11:00 AM


Visibility: N/A

Pressure: 29.98 "Hg

Humidity: 79%

Dew point: 75 °F

Location of Saint George'sLocation

Historic Weather in Saint George's — Graph

°F

Saint George's temperature yesterday

Maximum temperature yesterday: 86 °F (at 11:00 AM)
Minimum temperature yesterday: 68 °F (at 1:00 PM)
Average temperature yesterday: 79 °F

Past Weeks' High & Low Weather Summary

 TemperatureHumidityPressure
High86 °F (Dec 6, 11:00 AM)100% (Dec 7, 7:00 AM)30.01 "Hg (Dec 7, 7:00 AM)
Low68 °F (Dec 19, 1:00 PM)66% (Dec 12, 10:00 AM)29.80 "Hg (Dec 6, 3:00 PM)
Average81 °F84%29.89 "Hg
* Reported Dec 5 10:00 AM — Dec 20 10:00 AM, Saint George's, Weather by CustomWeather, © 2014

Note: Actual official high and low records may vary slightly from our data, if they occured in-between our weather recording intervals... More about our weather records

Advertising

Saint George's weather history for previous 24 hours

 ConditionsComfort  
Time TempWeatherWind HumidityBarometerVisibility
10:00 AM
Dec 20
84 °FPassing clouds.13 mph79%29.98 "HgN/A
9:00 AM82 °FPassing clouds.16 mph79%29.95 "HgN/A
8:00 AM82 °FPassing clouds.16 mph84%29.92 "HgN/A
7:00 AM79 °FPassing clouds.12 mph84%29.92 "HgN/A
6:00 AM77 °FPassing clouds.6 mph89%29.89 "HgN/A
5:00 AM77 °FPassing clouds.10 mph94%29.86 "HgN/A
3:00 AM77 °FPassing clouds.7 mph94%29.86 "HgN/A
2:00 AM77 °FSprinkles. Passing clouds.5 mph94%29.89 "HgN/A
12:00 AM77 °FPassing clouds.2 mph94%29.92 "HgN/A
10:00 PM
Dec 19
79 °FPassing clouds.6 mph84%29.92 "HgN/A
9:00 PM79 °FPassing clouds.9 mph89%29.92 "HgN/A
8:00 PM77 °FPassing clouds.6 mph94%29.92 "HgN/A
7:00 PM79 °FPassing clouds.7 mph89%29.89 "HgN/A
6:00 PM81 °FPassing clouds.9 mph84%29.89 "HgN/A
5:00 PM82 °FPartly sunny.12 mph79%29.86 "HgN/A
4:00 PM84 °FScattered clouds.9 mph74%29.86 "HgN/A
3:00 PM84 °FPassing clouds.12 mph74%29.86 "HgN/A
2:00 PM84 °FPassing clouds.14 mph79%29.89 "HgN/A
1:00 PM68 °FPassing clouds.15 mph100%29.89 "HgN/A
12:00 PM86 °FScattered clouds.12 mph75%29.92 "HgN/A
11:00 AM86 °FScattered clouds.12 mph70%29.95 "HgN/A
Weather by CustomWeather, © 2014

See weather overviewHow to use our weather pages